Regional Weather Roundup
Issued by NWS Charleston, SC

Current Version | Previous Version | Text Only | Print | Product List | Glossary Off
Versions: 1 2 3 4 5 6 7 8 9 10 11 12 13 14 15 16 17 18 19 20 21 22 23 24 25 26 27 28 29 30 31 32 33 34 35 36 37 38 39 40 41 42 43 44 45 46 47 48 49 50
000 ASUS42 KCHS 272212 RWRCHS REGIONAL WEATHER ROUNDUP NATIONAL WEATHER SERVICE CHARLESTON SC 600 PM EDT WED MAY 27 2015 NOTE: "FAIR" INDICATES FEW OR NO CLOUDS BELOW 12,000 FEET WITH NO SIGNIFICANT WEATHER AND/OR OBSTRUCTIONS TO VISIBILITY. NOT ALL STATIONS ARE QUALITY CONTROLLED BY THE NATIONAL WEATHER SERVICE. USE DATA WITH CAUTION...ESPECIALLY DEWPOINT OBSERVATIONS. SCZ027-030-031-034>040-042>050-272300- ...SOUTHEAST SOUTH CAROLINA... CITY SKY/WX TMP DP RH WIND PRES REMARKS N CHARLESTON MOSUNNY 81 65 58 SE12 30.20S WATERFRONT PAR N/A 79 69 71 SE9 30.17S MOUNT PLEASANT FAIR 81 70 69 SE8 30.20F JOHNS ISLAND PTCLDY 81 70 69 SE8 30.20F PINOPOLIS N/A 86 66 51 S7 30.12R MONCKS CORNER MOCLDY 84 66 54 S6 30.20R SUMMERVILLE FAIR 86 66 51 SE6 30.20S BEAUFORT MCAS MOSUNNY 84 67 56 SE7 30.18F BEAUFORT ARPT FAIR 81 68 65 SE7 30.18F HILTON HEAD IS MOSUNNY 81 66 61 SE5 30.20F WALTERBORO PTCLDY 82 63 51 S8 30.19R ALLENDALE FAIR 81 72 74 E5 30.17S ...SOUTHERN MIDLANDS AND PEE DEE... CITY SKY/WX TMP DP RH WIND PRES REMARKS GEORGETOWN NOT AVBL KINGSTREE NOT AVBL ORANGEBURG PTSUNNY 81 68 64 S7 30.19R BARNWELL FAIR 82 70 65 SE6 30.18S AIKEN FAIR 86 59 39 CALM 30.20F MANNING RAIN 73 70 88 S5 30.21R COLUMBIA PTSUNNY 79 70 74 E5 30.17R SUMTER PTSUNNY 79 69 71 SE3 30.18S FLORENCE PTSUNNY 80 70 71 S13 30.19F MYRTLE BEACH SUNNY 81 64 57 S12 30.24R N MYRTLE BEACH SUNNY 79 67 66 S10 30.22S $$ GAZ063-065-086>088-099>101-113>116-118-119-134>141-150-272300- ...SOUTHEAST GEORGIA... CITY SKY/WX TMP DP RH WIND PRES REMARKS SAVANNAH ARPT PTSUNNY 83 64 52 S12 30.18F HUNTER AAF SUNNY 82 67 61 SE8 30.16S FORT STEWART SUNNY 84 65 53 SE12 30.16S STATESBORO PTSUNNY 84 70 63 S8 30.17R SYLVANIA CLOUDY 83 74 75 E3 30.18R CLAXTON MOCLDY 84 66 54 SE7 30.17R ...CSRA...CENTRAL AND FAR SOUTHEAST GEORGIA... CITY SKY/WX TMP DP RH WIND PRES REMARKS THOMSON PTSUNNY 87 71 59 W3 30.21S HX 92 AUGUSTA-BUSH SUNNY 87 66 49 S7 30.14F AUGUSTA-DANIEL SUNNY 87 66 49 S3 30.17S SWAINSBORO MOCLDY 84 70 61 SE13G21 30.18R VIDALIA TSTM 73 70 88 S8G17 30.19R EASTMAN FAIR 88 69 53 S6 30.17F HX 92 HAZLEHURST MOCLDY 85 70 60 NE6 30.15S HX 90 ALMA PTSUNNY 85 65 51 SE6 30.14F WAYCROSS MOSUNNY 86 65 48 SE12 30.15S JESUP FAIR 88 64 45 SE7 30.17S BAXLEY FAIR 86 66 51 SE7 30.15S BRUNSWICK N/A 82 61 47 SE10 30.19S SAINT SIMONS NOT AVBL $$ SCZ027-028-034-036>038-045-046-048>050-GAZ119-141-272300- ...LAKE AND SUPPLEMENTAL COASTAL OBSERVATIONS... STATION/POSITION TIME TEMP WIND PRES WAVE SWELL AIR SEA DIR/SP/G HT/PER HT/PER/DIR (UTC) (F) (DEG/KT/KT) (MB) (FT/S) (FT/S/D) UPR LAKE MARION NOT AVBL WINYAH BAY NOT AVBL LAKE MURRAY 2100 84 220/ 4/ 8 1020.7F ACE BASIN NERRS NOT AVBL FORT PULASKI 2100 80 79 150/ 7/ 11 1023.0F SAPELO ISLAND 2100 85 120/ 8 1022.0F $$ ANZ835-935-AMZ111-154-330-350-352-354-370-450-454-472-272300- ...C-MAN AND BUOY OBSERVATIONS... STATION/POSITION TIME TEMP WIND PRES WAVE SWELL AIR SEA DIR/SP/G HT/PER HT/PER/DIR (UTC) (F) (DEG/KT/KT) (MB) (FT/S) (FT/S/D) BUOY 41004 2050 78 78 130/ 8/ 10 1022.7 3/ 7 3/ 7 BUOY 41008 2050 78 79 140/ 6/ 8 1022.7 3/ 7 3/110/ 7 FOLLY BEACH CMAN 2100 78 140/ 10/ 11 1023.1F CAPERS NEARSHORE NOT AVBL FRIPP NEARSHORE 2100 80 140/ 8/ 10 1022.2F STATION/POSITION TIME TEMP WIND PRES WAVE SWELL AIR SEA DIR/SP/G HT/PER HT/PER/DIR (UTC) (F) (DEG/KT/KT) (MB) (FT/S) (FT/S/D) 5E ST. MARYS GA NOT AVBL FRYING PAN BUOY 2050 77 76 140/ 14/ 16 1024.1 3/ 7 2/120/ 7 BUOY 41025 2050 75 77 160/ 16/ 17 1024.6 3/ 7 2/110/ 7 CAPE LOOKOUT NC 2100 74 150/ 14/ 16 1023.8F BUOY 41002 2050 74 75 90/ 10/ 12 1024.5 4/ 8 3/120/ 8 BUOY 41010 2120 78 80 80/ 14/ 16 1021.9F ST AUGUSTINE FL 2100 78 81 80/ 9/ 10 1022.5F $$

USA.gov is the U.S. government's official web portal to all federal, state and local government web resources and services.